Location: Potawatomi Wildlife Park
(41.2308°N, 86.1050°W)
Time: 06:51:40
(UTC-05:00)

Daily predictions for brighter satellites

Satellite Brightness Start Highest point End
(mag) Time Altitude Azimuth Time Altitude Azimuth Time Altitude Azimuth
USA 32 4.1 17:37:36 10° S 17:42:49 86° W 17:48:04 10° N
CZ-2C R/B 4.0 17:44:59 10° N 17:49:27 72° WNW 17:53:58 10° SSW
Cosmos 1812 3.0 17:47:15 10° SSW 17:51:04 71° W 17:54:57 10° N
Cosmos 1455 Rocket 3.4 17:47:59 10° NNW 17:52:24 74° W 17:56:50 10° S
Cosmos 1975 2.8 17:49:47 10° N 17:53:51 76° E 17:57:52 10° SSE
Cosmos 1238 Rocket 3.0 17:51:31 10° SSW 17:54:27 53° W 17:57:43 10° N
Nadezhda 3 Rocket 4.3 17:49:41 10° SSE 17:55:36 48° E 18:01:35 10° NNE
Delta 2 Rocket 4.3 17:53:13 10° WSW 17:56:23 33° S 17:59:50 10° ESE
NOSS 2-1 (E) 3.5 17:56:09 10° SSW 17:59:55 56° ESE 18:04:11 10° NE
MOS 1 4.2 18:00:59 10° SSE 18:06:37 77° ENE 18:12:17 10° NNW
TIMED 4.5 18:02:29 10° SSW 18:06:51 87° ESE 18:11:15 10° NNE
BREEZE-M DEB (TANK) 4.5 18:00:08 10° WNW 18:07:24 32° NNW 18:11:00 12° NE
Cosmos 1809 Rocket 4.4 18:01:43 10° N 18:07:52 72° E 18:13:56 10° SSE
CZ-4 R/B 1.5 18:04:33 10° SSE 18:08:43 84° W 18:12:49 10° NNW
Cosmos 2297 3.8 18:07:16 10° SSW 18:12:54 85° WNW 18:18:35 10° NNE
Thor Agena Rocket 3.6 18:08:28 10° NNE 18:13:44 81° ESE 18:19:01 10° SSW
IDEFIX/ARIANE 42P 2.5 18:10:08 10° SSE 18:15:19 86° ENE 18:20:32 10° NNW
MSX 3.8 18:09:50 10° SSE 18:15:28 60° ENE 18:21:07 10° N
CZ-2C R/B 2.5 18:12:23 10° SSE 18:17:27 88° WSW 18:22:39 10° NNW
USA 234 3.3 18:11:47 11° NE 18:18:10 75° SE 18:24:41 10° SW
Cosmos 2278 Rocket 3.5 18:15:02 10° SW 18:20:14 37° WNW 18:25:28 10° N
Cosmos 1666 3.4 18:19:32 10° NNE 18:23:03 32° ENE 18:26:35 10° SE
Okean 1-7 Rocket 3.5 18:20:56 10° S 18:25:24 72° E 18:29:52 10° NNE
ASTRO F (AKARI) 4.2 18:22:57 11° NNE 18:25:55 59° ESE 18:29:05 10° S
SMAP 3.4 18:23:41 10° S 18:28:19 70° WSW 18:32:59 10° NNW
Cosmos 1833 Rocket 2.8 18:28:35 10° NNW 18:34:15 79° WSW 18:39:51 10° SSE
SL-24 DEB 4.4 18:30:12 10° N 18:34:55 80° W 18:39:34 10° S
NOSS 3-4 (A) 3.8 18:27:59 10° NNW 18:34:58 68° NE 18:42:23 10° SE
NOSS 3-4 (C) 3.8 18:28:04 10° NNW 18:35:04 67° NE 18:42:29 10° SE
Tiangong 1 1.1 18:32:15 10° W 18:35:15 61° N 18:36:16 36° ENE
Cosmos 1934 Rocket 4.1 18:29:30 10° N 18:35:35 51° ENE 18:41:42 10° SSE
Cosmos 1346 Rocket 4.2 18:34:03 10° SW 18:37:41 37° WNW 18:41:19 10° N
Cosmos 1606 Rocket 3.8 18:35:58 10° N 18:40:19 47° ENE 18:44:38 10° SSE
ERBS 4.0 18:39:50 10° NNW 18:41:47 19° NNE 18:41:47 19° NNE
BREEZE M DEB (TANK) 3.4 18:39:02 10° NW 18:42:33 54° NNE 18:50:56 14° ESE
Cosmos 2082 Rocket 3.0 18:40:17 10° NNW 18:45:48 54° WSW 18:51:19 10° S
Cosmos 407 Rocket 3.6 18:41:40 10° N 18:46:40 49° ENE 18:51:40 10° SE
Cosmos 1535 Rocket 4.4 18:41:49 10° N 18:48:08 81° E 18:54:18 10° S
Cosmos 921 Rocket 4.2 18:45:00 10° SW 18:49:03 42° WNW 18:53:14 10° N
Cosmos 1743 3.4 18:45:55 10° NNW 18:49:43 57° W 18:53:28 10° S
COSMO-SKYMED 1 2.4 18:46:16 12° NNE 18:50:19 75° E 18:54:40 10° S
Cosmos 2056 Rocket 3.4 18:45:22 10° SSW 18:50:43 80° ESE 18:55:04 16° NNE
Cosmos 1025 Rocket 3.0 18:47:35 10° S 18:51:59 89° E 18:56:24 10° N
Meteor 1-28 Rocket 3.5 18:51:38 40° ENE 18:52:11 43° E 18:55:47 10° S
ISS -1.1 18:52:04 10° NNW 18:53:35 15° N 18:53:35 15° N
Cosmos 676 Rocket 4.2 18:54:22 10° N 18:59:22 45° ENE 19:02:36 20° SE
Intercosmos 25 4.5 18:59:10 10° NNW 19:02:08 37° W 19:05:33 10° SSW
Cosmos 1954 Rocket 4.4 18:58:09 10° N 19:03:00 38° ENE 19:03:05 38° ENE
Cosmos 1624 Rocket 4.1 18:58:11 10° SSW 19:03:22 73° WNW 19:07:38 16° NNE
Cosmos 1484 Rocket 3.6 19:07:40 10° S 19:11:17 48° W 19:14:53 10° NNW
Cosmos 1821 Rocket 4.3 19:06:09 10° NNW 19:12:11 67° W 19:18:14 10° S
NOAA 12 3.9 19:10:31 10° SSE 19:15:45 73° ENE 19:21:01 10° N
BREEZE-M R/B 4.4 19:08:50 10° W 19:17:37 42° NNW 19:19:22 32° NNE
Cosmos 2058 Rocket 2.9 19:14:02 10° N 19:18:31 78° E 19:22:56 10° S
Cosmos 2369 Rocket 2.2 19:16:57 10° S 19:22:27 54° ESE 19:22:50 52° E
Cosmos 1605 Rocket 3.9 19:16:50 10° N 19:23:09 84° E 19:29:18 10° S
CZ-3A R/B 4.4 19:22:13 10° WNW 19:30:16 26° NNW 19:32:04 22° NNE
Okean 2 4.4 19:30:46 10° SSW 19:34:47 46° WNW 19:36:27 30° NNW
CZ-3B DEB 4.1 19:32:07 10° WNW 19:37:28 35° N 19:41:21 28° NE
Cosmos 1340 3.6 19:34:43 10° SSW 19:37:49 47° WSW 19:37:49 47° WSW
Cosmos 1452 Rocket 3.4 19:34:15 10° SSW 19:39:29 89° WNW 19:39:51 78° NNE
METEOR-M 4.3 19:41:07 10° S 19:46:25 70° WSW 19:51:47 10° NNW
Cosmos 1943 Rocket 4.0 19:42:01 10° S 19:43:25 17° SSE 19:43:25 17° SSE
GEOS 3 Rocket 4.1 19:53:19 48° NNW 19:53:19 48° NNW 19:57:00 10° NNW
USA 234 4.2 19:59:08 33° N 20:00:52 39° NNW 20:06:49 10° W
Cosmos 1727 Rocket 4.4 19:56:19 10° SSW 20:02:25 60° W 20:06:10 24° N
FALCON 9 R/B 3.4 19:55:03 10° W 20:12:31 53° SSW 20:13:37 49° S
Cosmos 2369 Rocket 4.5 21:02:14 10° WSW 21:04:41 20° W 21:04:41 20° W
